EN

Hourly Weather Ambajogai

Today, 19 January, Tuesday

Time Temperature Precipitation Wind Pressure Humidity
00:00 +24°C° 0 mm 3 mps 705 mmHg 52%
01:00 +22°C° 0 mm 3 mps 705 mmHg 54%
02:00 +22°C° 0 mm 4 mps 705 mmHg 56%
03:00 +21°C° 0 mm 4 mps 704 mmHg 58%
04:00 +21°C° 0 mm 4 mps 704 mmHg 60%
05:00 +21°C° 0 mm 4 mps 704 mmHg 62%
06:00 +21°C° 0 mm 4 mps 705 mmHg 60%
07:00 +22°C° 0 mm 4 mps 706 mmHg 58%
08:00 +23°C° 0 mm 4 mps 707 mmHg 56%
09:00 +26°C° 0 mm 4 mps 707 mmHg 50%
10:00 +28°C° 0 mm 3 mps 707 mmHg 44%
11:00 +30°C° 0 mm 3 mps 707 mmHg 38%
12:00 +31°C° 0 mm 2 mps 706 mmHg 35%
13:00 +32°C° 0 mm 1 mps 706 mmHg 32%
14:00 +33°C° 0 mm 1 mps 705 mmHg 29%
15:00 +33°C° 0 mm 1 mps 705 mmHg 28%
16:00 +32°C° 0 mm 1 mps 705 mmHg 28%
17:00 +32°C° 0 mm 1 mps 704 mmHg 28%
18:00 +30°C° 0 mm 1 mps 705 mmHg 33%
19:00 +28°C° 0 mm 1 mps 705 mmHg 37%
20:00 +26°C° 0 mm 1 mps 705 mmHg 41%
21:00 +26°C° 0 mm 1 mps 705 mmHg 43%
22:00 +25°C° 0 mm 1 mps 705 mmHg 44%
23:00 +25°C° 0 mm 1 mps 705 mmHg 45%

Tomorrow, 20 January, Wednesday

Time Temperature Precipitation Wind Pressure Humidity
00:00 +24°C° 0 mm 1 mps 705 mmHg 46%
01:00 +24°C° 0 mm 2 mps 705 mmHg 47%
02:00 +24°C° 0 mm 2 mps 704 mmHg 48%
03:00 +23°C° 0 mm 1 mps 704 mmHg 50%
04:00 +22°C° 0 mm 1 mps 704 mmHg 53%
05:00 +21°C° 0 mm 1 mps 704 mmHg 55%
06:00 +22°C° 0 mm 1 mps 705 mmHg 53%
07:00 +23°C° 0 mm 2 mps 706 mmHg 50%
08:00 +25°C° 0 mm 3 mps 707 mmHg 47%
09:00 +26°C° 0 mm 3 mps 707 mmHg 43%
10:00 +28°C° 0 mm 2 mps 707 mmHg 38%
11:00 +30°C° 0 mm 2 mps 707 mmHg 34%
12:00 +31°C° 0 mm 2 mps 706 mmHg 31%
13:00 +32°C° 0 mm 2 mps 706 mmHg 28%
14:00 +34°C° 0 mm 2 mps 705 mmHg 25%
15:00 +34°C° 0 mm 2 mps 705 mmHg 25%
16:00 +34°C° 0 mm 3 mps 705 mmHg 25%
17:00 +33°C° 0 mm 3 mps 705 mmHg 25%
18:00 +30°C° 0 mm 3 mps 705 mmHg 28%
19:00 +28°C° 0 mm 2 mps 705 mmHg 31%
20:00 +26°C° 0 mm 2 mps 705 mmHg 34%
21:00 +26°C° 0 mm 2 mps 705 mmHg 34%
22:00 +25°C° 0 mm 2 mps 705 mmHg 35%
23:00 +25°C° 0 mm 1 mps 705 mmHg 35%

Day after tomorrow, 21 January, Thursday

Time Temperature Precipitation Wind Pressure Humidity
00:00 +24°C° 0 mm 2 mps 705 mmHg 37%
01:00 +24°C° 0 mm 2 mps 704 mmHg 38%
02:00 +23°C° 0 mm 2 mps 704 mmHg 39%
03:00 +21°C° 0 mm 2 mps 704 mmHg 40%
04:00 +20°C° 0 mm 2 mps 704 mmHg 41%
05:00 +20°C° 0 mm 2 mps 704 mmHg 42%
06:00 +21°C° 0 mm 2 mps 705 mmHg 40%
07:00 +21°C° 0 mm 2 mps 706 mmHg 38%
08:00 +23°C° 0 mm 2 mps 706 mmHg 36%
09:00 +25°C° 0 mm 2 mps 707 mmHg 32%
10:00 +28°C° 0 mm 3 mps 707 mmHg 27%
11:00 +30°C° 0 mm 3 mps 707 mmHg 23%
12:00 +31°C° 0 mm 3 mps 706 mmHg 22%
13:00 +31°C° 0 mm 2 mps 706 mmHg 21%
14:00 +32°C° 0 mm 2 mps 705 mmHg 20%
15:00 +32°C° 0 mm 2 mps 705 mmHg 20%
16:00 +32°C° 0 mm 2 mps 705 mmHg 21%
17:00 +31°C° 0 mm 3 mps 704 mmHg 21%
18:00 +29°C° 0 mm 2 mps 705 mmHg 23%
19:00 +27°C° 0 mm 2 mps 705 mmHg 26%
20:00 +25°C° 0 mm 2 mps 705 mmHg 28%
21:00 +25°C° 0 mm 2 mps 705 mmHg 29%
22:00 +24°C° 0 mm 2 mps 705 mmHg 30%
23:00 +24°C° 0 mm 2 mps 705 mmHg 31%

22 January, Friday

Time Temperature Precipitation Wind Pressure Humidity
00:00 +21°C° 0 mm 2 mps 705 mmHg 33%
01:00 +20°C° 0 mm 2 mps 704 mmHg 34%
02:00 +19°C° 0 mm 2 mps 704 mmHg 36%
03:00 +20°C° 0 mm 1 mps 704 mmHg 36%
04:00 +19°C° 0 mm 1 mps 704 mmHg 36%
05:00 +19°C° 0 mm 1 mps 704 mmHg 36%
06:00 +20°C° 0 mm 1 mps 705 mmHg 33%
07:00 +22°C° 0 mm 1 mps 706 mmHg 30%
08:00 +23°C° 0 mm 1 mps 706 mmHg 27%
09:00 +25°C° 0 mm 1 mps 707 mmHg 25%
10:00 +28°C° 0 mm 2 mps 707 mmHg 22%
11:00 +30°C° 0 mm 2 mps 707 mmHg 19%
12:00 +31°C° 0 mm 2 mps 706 mmHg 18%
13:00 +32°C° 0 mm 2 mps 706 mmHg 16%
14:00 +33°C° 0 mm 1 mps 705 mmHg 15%
15:00 +34°C° 0 mm 2 mps 705 mmHg 16%
16:00 +32°C° 0 mm 2 mps 704 mmHg 16%
17:00 +33°C° 0 mm 3 mps 704 mmHg 17%
18:00 +29°C° 0 mm 2 mps 704 mmHg 19%
19:00 +27°C° 0 mm 2 mps 704 mmHg 21%
20:00 +25°C° 0 mm 2 mps 705 mmHg 24%
21:00 +24°C° 0 mm 1 mps 704 mmHg 25%
22:00 +23°C° 0 mm 1 mps 704 mmHg 27%
23:00 +22°C° 0 mm 1 mps 704 mmHg 28%

23 January, Saturday

Time Temperature Precipitation Wind Pressure Humidity
00:00 +22°C° 0 mm 1 mps 704 mmHg 29%
01:00 +21°C° 0 mm 1 mps 704 mmHg 29%
02:00 +21°C° 0 mm 1 mps 704 mmHg 30%
03:00 +20°C° 0 mm 1 mps 704 mmHg 31%
04:00 +20°C° 0 mm 1 mps 704 mmHg 32%
05:00 +19°C° 0 mm 1 mps 704 mmHg 32%
06:00 +20°C° 0 mm 2 mps 705 mmHg 31%
07:00 +21°C° 0 mm 2 mps 705 mmHg 29%
08:00 +23°C° 0 mm 2 mps 706 mmHg 27%
09:00 +26°C° 0 mm 2 mps 706 mmHg 23%
10:00 +29°C° 0 mm 2 mps 707 mmHg 20%
11:00 +31°C° 0 mm 2 mps 707 mmHg 16%
12:00 +32°C° 0 mm 2 mps 706 mmHg 15%
13:00 +33°C° 0 mm 1 mps 706 mmHg 14%
14:00 +34°C° 0 mm 1 mps 705 mmHg 13%
15:00 +34°C° 0 mm 1 mps 705 mmHg 14%
16:00 +33°C° 0 mm 1 mps 704 mmHg 15%
17:00 +34°C° 0 mm 2 mps 704 mmHg 16%
18:00 +30°C° 0 mm 1 mps 704 mmHg 19%
19:00 +27°C° 0 mm 1 mps 704 mmHg 22%
20:00 +25°C° 0 mm 1 mps 704 mmHg 25%
21:00 +24°C° 0 mm 1 mps 704 mmHg 25%
22:00 +24°C° 0 mm 1 mps 704 mmHg 26%
23:00 +23°C° 0 mm 1 mps 704 mmHg 27%

24 January, Sunday

Time Temperature Precipitation Wind Pressure Humidity
00:00 +23°C° 0 mm 1 mps 704 mmHg 28%
01:00 +22°C° 0 mm 1 mps 703 mmHg 28%
02:00 +22°C° 0 mm 1 mps 703 mmHg 29%
03:00 +21°C° 0 mm 1 mps 703 mmHg 30%
04:00 +18°C° 0 mm 0 mps 703 mmHg 32%
05:00 +17°C° 0 mm 0 mps 703 mmHg 33%
06:00 +19°C° 0 mm 0 mps 704 mmHg 31%
07:00 +21°C° 0 mm 0 mps 705 mmHg 28%
08:00 +23°C° 0 mm 0 mps 706 mmHg 25%
09:00 +27°C° 0 mm 1 mps 706 mmHg 22%
10:00 +29°C° 0 mm 1 mps 706 mmHg 19%
11:00 +32°C° 0 mm 1 mps 707 mmHg 16%
12:00 +33°C° 0 mm 1 mps 706 mmHg 15%
13:00 +34°C° 0 mm 1 mps 706 mmHg 15%
14:00 +35°C° 0 mm 1 mps 705 mmHg 14%
15:00 +34°C° 0 mm 1 mps 705 mmHg 15%
16:00 +34°C° 0 mm 1 mps 705 mmHg 15%
17:00 +33°C° 0 mm 1 mps 704 mmHg 16%
18:00 +31°C° 0 mm 1 mps 704 mmHg 19%
19:00 +28°C° 0 mm 1 mps 705 mmHg 21%
20:00 +26°C° 0 mm 1 mps 705 mmHg 24%
21:00 +25°C° 0 mm 1 mps 705 mmHg 25%
22:00 +25°C° 0 mm 1 mps 705 mmHg 26%
23:00 +24°C° 0 mm 1 mps 705 mmHg 27%
Show more